Home > Weather > Fort Lauderdale > Past weeks

Flag for USA Weather for the Past 2 Weeks in Fort Lauderdale, Florida, USA

Now
80 °F

Passing clouds.


Feels Like: 84 °F
Forecast: 78 / 86 °F
Wind: 12 mph from Southeast

Location: Fort Lauderdale / Hollywood International Airport

Current Time: May 3, 2016 at 1:57:49 AM

Latest Report: May 3, 2016 at 12:53 AM


Visibility: 10 mi

Pressure: 29.99 "Hg

Humidity: 79%

Dew Point: 73 °F

Location of Fort LauderdaleLocation

Historic Weather in Fort Lauderdale — Graph

°F

Fort Lauderdale Temperature Yesterday

Maximum temperature yesterday: 85 °F (at 11:53 AM)
Minimum temperature yesterday: 79 °F (at 1:53 AM)
Average temperature yesterday: 81 °F

High & Low Weather Summary for the Past Weeks

 TemperatureHumidityPressure
High89 °F (Apr 23, 5:53 PM)88% (Apr 23, 4:53 AM)30.16 "Hg (Apr 23, 4:53 AM)
Low66 °F (Apr 19, 4:53 AM)35% (Apr 23, 7:53 PM)29.86 "Hg (Apr 23, 5:53 PM)
Average78 °F61%30.00 "Hg
* Reported Apr 17 11:53 PM — May 2 11:53 PM, Fort Lauderdale, Weather by CustomWeather, © 2016

Note: Actual official high and low records may vary slightly from our data, if they occured in-between our weather recording intervals... More about our weather records

Advertising

Fort Lauderdale Weather History for the Previous 24 Hours

Scroll right to see more
 ConditionsComfort  
Time TempWeatherWind HumidityBarometerVisibility
11:53 PM
Mon, May 2
80 °FPassing clouds.17 mph74%30.00 "Hg10 mi
10:53 PM80 °FPassing clouds.14 mph79%30.00 "Hg10 mi
10:02 PM81 °FPassing clouds.14 mph74%29.99 "Hg10 mi
8:53 PM81 °FPartly cloudy.15 mph74%29.99 "Hg10 mi
7:53 PM81 °FScattered clouds.17 mph74%29.97 "Hg10 mi
6:53 PM82 °FPassing clouds.16 mph72%29.96 "Hg10 mi
5:53 PM83 °FPassing clouds.15 mph68%29.96 "Hg10 mi
4:53 PM83 °FScattered clouds.17 mph68%29.97 "Hg10 mi
3:53 PM84 °FScattered clouds.16 mph65%29.98 "Hg10 mi
2:53 PM84 °FScattered clouds.17 mph65%30.01 "Hg10 mi
1:53 PM85 °FScattered clouds.16 mph63%30.02 "Hg10 mi
12:53 PM85 °FScattered clouds.17 mph63%30.03 "Hg10 mi
11:53 AM85 °FScattered clouds.18 mph63%30.04 "Hg10 mi
10:53 AM84 °FPassing clouds.20 mph65%30.04 "Hg10 mi
9:53 AM83 °FBroken clouds.17 mph68%30.04 "Hg10 mi
8:53 AM81 °FScattered clouds.18 mph69%30.03 "Hg10 mi
7:53 AM80 °FPartly sunny.17 mph74%30.01 "Hg10 mi
6:53 AM79 °FPassing clouds.16 mph74%30.00 "Hg10 mi
6:00 AM79 °FPassing clouds.16 mph74%29.99 "Hg10 mi
4:53 AM79 °FPassing clouds.15 mph77%29.97 "Hg10 mi
3:53 AM79 °FPassing clouds.18 mph77%29.98 "Hg10 mi
2:53 AM79 °FPartly cloudy.18 mph77%29.99 "Hg10 mi
1:53 AM79 °FPassing clouds.21 mph74%30.01 "Hg10 mi
Weather by CustomWeather, © 2016

See weather overviewHow to use our weather pages